Regional Weather Roundup
Issued by NWS Bismarck, ND

Home | Current Version | Previous Version | Text Only | Print | Product List | Glossary On
Versions: 1 2 3 4 5 6 7 8 9 10 11 12 13 14 15 16 17 18 19 20 21 22 23 24 25 26 27 28 29 30 31 32 33 34 35 36 37 38 39 40 41 42 43 44 45 46 47 48 49 50
485
ASUS43 KBIS 201210
RWRBIS

NWR BROADCAST TEXT
NATIONAL WEATHER SERVICE BISMARCK ND
700 AM CDT THU JUL 20 2017

NOTE: "FAIR" INDICATES FEW OR NO CLOUDS BELOW 12,000 FEET WITH NO
SIGNIFICANT WEATHER AND/OR OBSTRUCTIONS TO VISIBILITY.


CITY           SKY/WX    TMP DP  RH WIND       PRES   REMARKS
WILLISTON        N/A    N/A N/A N/A MISG      29.96R
MINOT          CLEAR     59  56  89 N3        30.01R
MINOT AFB      CLEAR     61  58  90 E5        30.00R
BISMARCK       CLOUDY    63  61  93 E3        30.02S
DICKINSON      CLEAR     67  61  81 SW10      29.99S
GARRISON         N/A     64  61  90 E7        30.01R
HETTINGER ARPT MOCLDY    65  60  84 VRB3      30.06R
JAMESTOWN      CLOUDY    63  61  93 CALM      30.00S
HAZEN          FAIR      54  54 100 CALM      30.03R
LINTON         FAIR     N/A N/A N/A N6        30.04R FOG
MANDAN         FAIR      64  63  94 MISG      30.03R
STANLEY        FAIR      61  59  94 E7        30.03S
TIOGA          FAIR      61  59  94 E9        30.02R
WATFORD CITY   FAIR      64  57  77 CALM      29.98R
$$

CITY           SKY/WX    TMP DP  RH WIND       PRES   REMARKS
GRAND FORKS    PTCLDY    60  58  92 CALM      29.98R
GRAND FORKS AF CLEAR     57  56  96 CALM      30.00R
DEVILS LAKE    PTCLDY    61  59  93 N7        30.04R
FARGO          PTCLDY    63  62  97 CALM      29.99R
CAVALIER       FAIR      57  55  94 CALM      30.01R
GRAFTON        FAIR      57  57 100 N7        30.02R
GWINNER        SUNNY     61  61 100 CALM      30.01R FOG
LANGDON        FAIR      54  54 100 N6        30.04R
ROLLA            N/A     55  55 100 N3        30.05R
$$

CITY           SKY/WX    TMP DP  RH WIND       PRES   REMARKS
ABERDEEN       FOG       63  63 100 CALM      30.02R VSB<1/4
MOBRIDGE       FOG       68  67  96 VRB5      29.99R VSB<1/4
BUFFALO          N/A     68  63  84 SE8       30.00R
RAPID CITY     PTCLDY    66  62  87 NW6       30.07F
SIDNEY         CLEAR     60  55  83 S7        29.95S
WOLF POINT     CLEAR     56  48  74 N6        29.96R
GLENDIVE       CLOUDY    67  59  75 CALM      29.98S
MILES CITY     CLEAR     76  53  44 SE10      29.93F
BAKER          PTCLDY    67  56  67 SE8       30.02S
$$

CITY           SKY/WX    TMP DP  RH WIND       PRES   REMARKS
BILLINGS       PTCLDY    66  43  43 NW7       29.94R
GREAT FALLS    CLEAR     55  35  47 SW7       29.96R
REGINA         PTCLDY    50  46  87 SE8       30.00R
ESTEVAN        PTCLDY    55  52  88 SE6       30.01S
$$





USA.gov is the U.S. government's official web portal to all federal, state and local government web resources and services.